This is the latest recevied weather packets stored in our database for station/object WX9WTF. If no packets are shown the sender has not sent any weather packets the latest 10 day(s).
| Time | Temp. | Humidity | Pressure | Rain* | Wind** | Luminosity | Snow |
|---|---|---|---|---|---|---|---|
| 1778004696 | 6.67° C | 96% | 1012.9 hPa | 0.51 mm | - | 62 W/m² | - |
| 1778004391 | 6.67° C | 96% | 1013.5 hPa | 0 mm | - | 42 W/m² | - |
| 1778004089 | 6.67° C | 96% | 1013.5 hPa | 1.78 mm | - | 40 W/m² | - |
| 1778003785 | 6.67° C | 96% | 1013.7 hPa | 3.56 mm | - | 46 W/m² | - |
| 1778003482 | 6.67° C | 96% | 1013.4 hPa | 2.29 mm | - | 62 W/m² | - |
| 1778003178 | 6.67° C | 96% | 1013.1 hPa | 1.27 mm | - | 48 W/m² | - |
| 1778002874 | 7.22° C | 95% | 1013.4 hPa | 0.51 mm | - | 45 W/m² | - |
| 1778002571 | 7.22° C | 96% | 1013.1 hPa | 0.51 mm | - | 57 W/m² | - |
| 1778002268 | 7.22° C | 95% | 1013.2 hPa | 0 mm | - | 53 W/m² | - |
| 1778001966 | 7.22° C | 95% | 1013.1 hPa | 0 mm | - | 24 W/m² | - |
| 1778001663 | 7.22° C | 95% | 1013 hPa | 2.29 mm | - | 87 W/m² | - |
| 1778001357 | 7.78° C | 95% | 1013 hPa | 3.05 mm | - | 56 W/m² | - |
| 1778001054 | 7.78° C | 95% | 1013.3 hPa | 1.27 mm | - | 38 W/m² | - |
| 1778000751 | 7.78° C | 94% | 1013.7 hPa | 1.78 mm | - | 52 W/m² | - |
| 1778000447 | 7.78° C | 94% | 1013.3 hPa | 3.56 mm | - | 41 W/m² | - |
| 1778000142 | 7.78° C | 94% | 1013.1 hPa | 6.6 mm | - | 71 W/m² | - |
| 1777999838 | 7.78° C | 93% | 1013.5 hPa | 6.1 mm | - | 73 W/m² | - |
| 1777999535 | 7.78° C | 93% | 1013.2 hPa | 4.32 mm | - | 73 W/m² | - |
| 1777999232 | 7.78° C | 92% | 1013.2 hPa | 5.33 mm | - | 58 W/m² | - |
| 1777998931 | 8.33° C | 91% | 1012.9 hPa | 4.83 mm | - | 77 W/m² | - |
| 1777998627 | 8.33° C | 90% | 1013.7 hPa | 3.05 mm | - | 74 W/m² | - |
| 1777998321 | 8.33° C | 90% | 1013.9 hPa | 1.27 mm | - | 37 W/m² | - |
| 1777998018 | 8.33° C | 90% | 1013.8 hPa | 0 mm | - | 36 W/m² | - |
| 1777997714 | 8.33° C | 89% | 1013.2 hPa | 0 mm | - | 36 W/m² | - |
| 1777997411 | 8.89° C | 90% | 1013.2 hPa | 0 mm | - | 56 W/m² | - |
* Rain latest hour (hover to see other rain measurements)
** Current wind speed in m/s (hover to see current wind gust speed)